Home > Weather > Richmond > Past weeks

Flag for USA Past Weather in Richmond, Virginia, USA — Yesterday and Last 2 Weeks

Now
62 °F

Passing clouds.


Feels Like: 62 °F
Forecast: 60 / 88 °F
Wind: No wind

Location: Richmond International Airport

Current Time: May 26, 2016 at 3:06:55 AM

Latest Report: May 26, 2016 at 1:54 AM


Visibility: 10 mi

Pressure: 30.14 "Hg

Humidity: 86%

Dew Point: 58 °F

Location of RichmondLocation

Past Weather in Richmond — Graph

°F

Richmond Temperature Yesterday

Maximum temperature yesterday: 86 °F (at 4:54 PM)
Minimum temperature yesterday: 61 °F (at 5:54 AM)
Average temperature yesterday: 74 °F

High & Low Weather Summary for the Past Weeks

 TemperatureHumidityPressure
High86 °F (May 25, 4:54 PM)100% (May 11, 5:03 AM)30.28 "Hg (May 11, 5:03 AM)
Low40 °F (May 16, 3:54 AM)29% (May 15, 3:54 PM)29.71 "Hg (May 14, 2:54 PM)
Average61 °F77%30.05 "Hg
* Reported May 11 1:54 AM — May 26 1:54 AM, Richmond, Weather by CustomWeather, © 2016

Note: Actual official high and low records may vary slightly from our data, if they occured in-between our weather recording intervals... More about our weather records

Advertising

Richmond Weather History for the Previous 24 Hours

Scroll right to see more
 ConditionsComfort  
Time TempWeatherWind HumidityBarometerVisibility
1:54 AM
Thu, May 26
62 °FPassing clouds.No wind86%30.14 "Hg10 mi
12:54 AM64 °FPassing clouds.No wind81%30.14 "Hg10 mi
11:54 PM
Wed, May 25
65 °FClear.No wind81%30.14 "Hg10 mi
10:54 PM67 °FPassing clouds.No wind76%30.14 "Hg10 mi
9:54 PM68 °FPassing clouds.3 mph73%30.14 "Hg10 mi
8:54 PM74 °FScattered clouds.3 mph57%30.13 "Hg10 mi
7:54 PM78 °FPartly sunny.6 mph48%30.13 "Hg10 mi
6:54 PM83 °FPartly sunny.9 mph36%30.12 "Hg10 mi
5:54 PM85 °FPartly sunny.12 mph35%30.13 "Hg10 mi
4:54 PM86 °FPartly sunny.10 mph32%30.14 "Hg10 mi
3:54 PM85 °FPartly sunny.10 mph32%30.14 "Hg10 mi
2:54 PM85 °FPartly sunny.15 mph34%30.16 "Hg10 mi
1:54 PM85 °FPartly sunny.13 mph34%30.17 "Hg10 mi
12:54 PM83 °FOvercast.9 mph37%30.18 "Hg10 mi
11:54 AM82 °FOvercast.7 mph33%30.19 "Hg10 mi
10:54 AM82 °FPartly sunny.3 mph38%30.19 "Hg10 mi
9:54 AM79 °FPartly sunny.3 mph47%30.19 "Hg10 mi
8:54 AM74 °FPartly sunny.5 mph56%30.19 "Hg10 mi
7:54 AM69 °FScattered clouds.No wind63%30.18 "Hg10 mi
6:54 AM63 °FPassing clouds.5 mph75%30.17 "Hg10 mi
5:54 AM61 °FPassing clouds.3 mph81%30.14 "Hg9 mi
4:54 AM62 °FPassing clouds.6 mph78%30.13 "Hg10 mi
3:54 AM64 °FPassing clouds.5 mph73%30.12 "Hg10 mi
Weather by CustomWeather, © 2016

See weather overviewHow to use our weather pages